This is the latest recevied weather packets stored in our database for station/object 9A3XK-13. If no packets are shown the sender has not sent any weather packets the latest 10 day(s).
| Time | Temp. | Humidity | Pressure | Rain* | Wind** | Luminosity | Snow |
|---|---|---|---|---|---|---|---|
| 1777964116 | 18.33° C | 59% | 1014.4 hPa | 0 mm | - | 446 W/m² | - |
| 1777963816 | 18.33° C | 60% | 1014.5 hPa | 0 mm | - | 351 W/m² | - |
| 1777963516 | 17.78° C | 62% | 1014.4 hPa | 0 mm | - | 458 W/m² | - |
| 1777963216 | 17.78° C | 63% | 1014.4 hPa | 0 mm | - | 441 W/m² | - |
| 1777962916 | 17.22° C | 65% | 1014.4 hPa | 0 mm | - | 286 W/m² | - |
| 1777962616 | 16.67° C | 68% | 1014.4 hPa | 0 mm | - | 273 W/m² | - |
| 1777962316 | 16.67° C | 69% | 1014.4 hPa | 0 mm | - | 427 W/m² | - |
| 1777962016 | 16.11° C | 69% | 1014.3 hPa | 0 mm | - | 419 W/m² | - |
| 1777961716 | 15.56° C | 69% | 1014.3 hPa | 0 mm | - | 387 W/m² | - |
| 1777961416 | 15.56° C | 70% | 1014.2 hPa | 0 mm | - | 339 W/m² | - |
| 1777961116 | 15° C | 71% | 1014.2 hPa | 0 mm | - | 321 W/m² | - |
| 1777960816 | 14.44° C | 71% | 1014.1 hPa | 0 mm | - | 329 W/m² | - |
| 1777960516 | 14.44° C | 72% | 1014.2 hPa | 0 mm | - | 292 W/m² | - |
| 1777960216 | 13.89° C | 73% | 1014.2 hPa | 0 mm | - | 126 W/m² | - |
| 1777959917 | 13.33° C | 74% | 1014.2 hPa | 0 mm | - | 62 W/m² | - |
| 1777959616 | 13.33° C | 74% | 1014.1 hPa | 0 mm | - | 58 W/m² | - |
| 1777959316 | 12.78° C | 74% | 1014.2 hPa | 0 mm | - | 72 W/m² | - |
| 1777959016 | 12.78° C | 74% | 1014.2 hPa | 0 mm | - | 194 W/m² | - |
| 1777958717 | 12.22° C | 75% | 1014.1 hPa | 0 mm | - | 230 W/m² | - |
| 1777958416 | 12.22° C | 76% | 1014.2 hPa | 0 mm | - | 105 W/m² | - |
| 1777958116 | 11.67° C | 76% | 1014 hPa | 0 mm | - | 48 W/m² | - |
| 1777957816 | 11.67° C | 76% | 1014 hPa | 0 mm | - | 46 W/m² | - |
| 1777957516 | 11.11° C | 76% | 1013.9 hPa | 0 mm | - | 43 W/m² | - |
| 1777956916 | 11.11° C | 77% | 1013.9 hPa | 0 mm | - | 38 W/m² | - |
| 1777956616 | 10.56° C | 77% | 1013.9 hPa | 0 mm | - | 35 W/m² | - |
* Rain latest hour (hover to see other rain measurements)
** Current wind speed in m/s (hover to see current wind gust speed)